Year,Month,Day,Hour,Minute,Value (Times are PST for temperature in C)
2016,08,24,00,00,15.80
2016,08,24,00,01,15.80
2016,08,24,00,02,15.80
2016,08,24,00,03,15.80
2016,08,24,00,04,15.80
2016,08,24,00,05,15.80
2016,08,24,00,06,15.70
2016,08,24,00,07,15.70
2016,08,24,00,08,15.70
2016,08,24,00,09,15.70
2016,08,24,00,10,15.70
2016,08,24,00,11,15.70
2016,08,24,00,12,15.70
2016,08,24,00,13,15.70
2016,08,24,00,14,15.70
2016,08,24,00,15,15.80
2016,08,24,00,16,15.80
2016,08,24,00,17,15.90
2016,08,24,00,18,15.90
2016,08,24,00,19,15.90
2016,08,24,00,20,15.90
2016,08,24,00,21,15.90
2016,08,24,00,22,15.90
2016,08,24,00,23,15.90
2016,08,24,00,24,15.90
2016,08,24,00,25,15.90
2016,08,24,00,26,15.80
2016,08,24,00,27,15.80
2016,08,24,00,28,15.80
2016,08,24,00,29,15.80
2016,08,24,00,30,15.80
2016,08,24,00,31,15.80
2016,08,24,00,32,15.80
2016,08,24,00,33,15.80
2016,08,24,00,34,15.80
2016,08,24,00,35,15.80
2016,08,24,00,36,15.80
2016,08,24,00,37,15.80
2016,08,24,00,38,15.90
2016,08,24,00,39,15.90
2016,08,24,00,40,15.90
2016,08,24,00,41,16.00
2016,08,24,00,42,16.00
2016,08,24,00,43,16.00
2016,08,24,00,44,16.10
2016,08,24,00,45,16.10
2016,08,24,00,46,16.10
2016,08,24,00,47,16.10
2016,08,24,00,48,16.10
2016,08,24,00,49,16.10
2016,08,24,00,50,16.10
2016,08,24,00,51,16.10
2016,08,24,00,52,16.10
2016,08,24,00,53,16.10
2016,08,24,00,54,16.00
2016,08,24,00,55,16.00
2016,08,24,00,56,15.90
2016,08,24,00,57,15.90
2016,08,24,00,58,15.90
2016,08,24,00,59,15.90
2016,08,24,01,00,15.90
2016,08,24,01,01,15.90
2016,08,24,01,02,15.90
2016,08,24,01,03,15.80
2016,08,24,01,04,15.80
2016,08,24,01,05,15.80
2016,08,24,01,06,15.70
2016,08,24,01,07,15.70
2016,08,24,01,08,15.70
2016,08,24,01,09,15.70
2016,08,24,01,10,15.70
2016,08,24,01,11,15.70
2016,08,24,01,12,15.60
2016,08,24,01,13,15.60
2016,08,24,01,14,15.60
2016,08,24,01,15,15.60
2016,08,24,01,16,15.70
2016,08,24,01,17,15.70
2016,08,24,01,18,15.70
2016,08,24,01,19,15.70
2016,08,24,01,20,15.70
2016,08,24,01,21,15.80
2016,08,24,01,22,15.80
2016,08,24,01,23,15.80
2016,08,24,01,24,15.80
2016,08,24,01,25,15.80
2016,08,24,01,26,15.90
2016,08,24,01,27,15.90
2016,08,24,01,28,15.90
2016,08,24,01,29,15.90
2016,08,24,01,30,15.90
2016,08,24,01,31,16.00
2016,08,24,01,32,16.00
2016,08,24,01,33,16.00
2016,08,24,01,34,16.00
2016,08,24,01,35,15.90
2016,08,24,01,36,15.90
2016,08,24,01,37,15.90
2016,08,24,01,38,15.90
2016,08,24,01,39,15.80
2016,08,24,01,40,15.80
2016,08,24,01,41,15.80
2016,08,24,01,42,15.80
2016,08,24,01,43,15.90
2016,08,24,01,44,15.90
2016,08,24,01,45,15.90
2016,08,24,01,46,15.90
2016,08,24,01,47,15.90
2016,08,24,01,48,15.90
2016,08,24,01,49,16.00
2016,08,24,01,50,16.00
2016,08,24,01,51,16.10
2016,08,24,01,52,16.10
2016,08,24,01,53,16.10
2016,08,24,01,54,16.10
2016,08,24,01,55,16.10
2016,08,24,01,56,16.00
2016,08,24,01,57,16.00
2016,08,24,01,58,16.00
2016,08,24,01,59,16.00
2016,08,24,02,00,16.00
2016,08,24,02,01,16.00
2016,08,24,02,02,16.00
2016,08,24,02,03,16.00
2016,08,24,02,04,16.00
2016,08,24,02,05,16.00
2016,08,24,02,06,16.00
2016,08,24,02,07,16.00
2016,08,24,02,08,15.90
2016,08,24,02,09,15.90
2016,08,24,02,10,15.80
2016,08,24,02,11,15.80
2016,08,24,02,12,15.80
2016,08,24,02,13,15.70
2016,08,24,02,14,15.70
2016,08,24,02,15,15.60
2016,08,24,02,16,15.60
2016,08,24,02,17,15.50
2016,08,24,02,18,15.50
2016,08,24,02,19,15.50
2016,08,24,02,20,15.50
2016,08,24,02,21,15.40
2016,08,24,02,22,15.40
2016,08,24,02,23,15.40
2016,08,24,02,24,15.30
2016,08,24,02,25,15.30
2016,08,24,02,26,15.30
2016,08,24,02,27,15.30
2016,08,24,02,28,15.30
2016,08,24,02,29,15.30
2016,08,24,02,30,15.30
2016,08,24,02,31,15.30
2016,08,24,02,32,15.30
2016,08,24,02,33,15.30
2016,08,24,02,34,15.40
2016,08,24,02,35,15.40
2016,08,24,02,36,15.40
2016,08,24,02,37,15.40
2016,08,24,02,38,15.40
2016,08,24,02,39,15.40
2016,08,24,02,40,15.40
2016,08,24,02,41,15.30
2016,08,24,02,42,15.30
2016,08,24,02,43,15.30
2016,08,24,02,44,15.20
2016,08,24,02,45,15.20
2016,08,24,02,46,15.20
2016,08,24,02,47,15.20
2016,08,24,02,48,15.10
2016,08,24,02,49,15.10
2016,08,24,02,50,15.10
2016,08,24,02,51,15.10
2016,08,24,02,52,15.00
2016,08,24,02,53,15.00
2016,08,24,02,54,15.00
2016,08,24,02,55,14.90
2016,08,24,02,56,14.90
2016,08,24,02,57,14.80
2016,08,24,02,58,14.80
2016,08,24,02,59,14.80
2016,08,24,03,00,14.80
2016,08,24,03,01,14.70
2016,08,24,03,02,14.70
2016,08,24,03,03,14.70
2016,08,24,03,04,14.70
2016,08,24,03,05,14.70
2016,08,24,03,06,14.70
2016,08,24,03,07,14.60
2016,08,24,03,08,14.60
2016,08,24,03,09,14.60
2016,08,24,03,10,14.50
2016,08,24,03,11,14.50
2016,08,24,03,12,14.40
2016,08,24,03,13,14.40
2016,08,24,03,14,14.40
2016,08,24,03,15,14.40
2016,08,24,03,16,14.30
2016,08,24,03,17,14.30
2016,08,24,03,18,14.30
2016,08,24,03,19,14.30
2016,08,24,03,20,14.30
2016,08,24,03,21,14.30
2016,08,24,03,22,14.30
2016,08,24,03,23,14.30
2016,08,24,03,24,14.30
2016,08,24,03,25,14.30
2016,08,24,03,26,14.30
2016,08,24,03,27,14.20
2016,08,24,03,28,14.20
2016,08,24,03,29,14.20
2016,08,24,03,30,14.20
2016,08,24,03,31,14.20
2016,08,24,03,32,14.20
2016,08,24,03,33,14.20
2016,08,24,03,34,14.20
2016,08,24,03,35,14.20
2016,08,24,03,36,14.10
2016,08,24,03,37,14.10
2016,08,24,03,38,14.10
2016,08,24,03,39,14.10
2016,08,24,03,40,14.10
2016,08,24,03,41,14.10
2016,08,24,03,42,14.10
2016,08,24,03,43,14.00
2016,08,24,03,44,14.00
2016,08,24,03,45,14.00
2016,08,24,03,46,13.90
2016,08,24,03,47,13.90
2016,08,24,03,48,13.90
2016,08,24,03,49,13.90
2016,08,24,03,50,13.90
2016,08,24,03,51,13.90
2016,08,24,03,52,13.90
2016,08,24,03,53,13.90
2016,08,24,03,54,13.80
2016,08,24,03,55,13.80
2016,08,24,03,56,13.80
2016,08,24,03,57,13.80
2016,08,24,03,58,13.80
2016,08,24,03,59,13.80
2016,08,24,04,00,13.80
2016,08,24,04,01,13.80
2016,08,24,04,02,13.80
2016,08,24,04,03,13.80
2016,08,24,04,04,13.80
2016,08,24,04,05,13.80
2016,08,24,04,06,13.80
2016,08,24,04,07,13.80
2016,08,24,04,08,13.80
2016,08,24,04,09,13.80
2016,08,24,04,10,13.80
2016,08,24,04,11,13.80
2016,08,24,04,12,13.80
2016,08,24,04,13,13.80
2016,08,24,04,14,13.80
2016,08,24,04,15,13.80
2016,08,24,04,16,13.80
2016,08,24,04,17,13.80
2016,08,24,04,18,13.70
2016,08,24,04,19,13.70
2016,08,24,04,20,13.70
2016,08,24,04,21,13.70
2016,08,24,04,22,13.70
2016,08,24,04,23,13.70
2016,08,24,04,24,13.80
2016,08,24,04,25,13.80
2016,08,24,04,26,13.80
2016,08,24,04,27,13.80
2016,08,24,04,28,13.80
2016,08,24,04,29,13.80
2016,08,24,04,30,13.80
2016,08,24,04,31,13.80
2016,08,24,04,32,13.80
2016,08,24,04,33,13.80
2016,08,24,04,34,13.80
2016,08,24,04,35,13.80
2016,08,24,04,36,13.80
2016,08,24,04,37,13.80
2016,08,24,04,38,13.80
2016,08,24,04,39,13.80
2016,08,24,04,40,13.80
2016,08,24,04,41,13.80
2016,08,24,04,42,13.70
2016,08,24,04,43,13.70
2016,08,24,04,44,13.70
2016,08,24,04,45,13.70
2016,08,24,04,46,13.70
2016,08,24,04,47,13.70
2016,08,24,04,48,13.70
2016,08,24,04,49,13.70
2016,08,24,04,50,13.70
2016,08,24,04,51,13.60
2016,08,24,04,52,13.60
2016,08,24,04,53,13.60
2016,08,24,04,54,13.60
2016,08,24,04,55,13.60
2016,08,24,04,56,13.60
2016,08,24,04,57,13.60
2016,08,24,04,58,13.60
2016,08,24,04,59,13.60
2016,08,24,05,00,13.60
2016,08,24,05,01,13.60
2016,08,24,05,02,13.60
2016,08,24,05,03,13.50
2016,08,24,05,04,13.50
2016,08,24,05,05,13.50
2016,08,24,05,06,13.50
2016,08,24,05,07,13.50
2016,08,24,05,08,13.50
2016,08,24,05,09,13.50
2016,08,24,05,10,13.40
2016,08,24,05,11,13.40
2016,08,24,05,12,13.40
2016,08,24,05,13,13.40
2016,08,24,05,14,13.40
2016,08,24,05,15,13.40
2016,08,24,05,16,13.40
2016,08,24,05,17,13.40
2016,08,24,05,18,13.40
2016,08,24,05,19,13.40
2016,08,24,05,20,13.40
2016,08,24,05,21,13.40
2016,08,24,05,22,13.40
2016,08,24,05,23,13.40
2016,08,24,05,24,13.40
2016,08,24,05,25,13.40
2016,08,24,05,26,13.30
2016,08,24,05,27,13.30
2016,08,24,05,28,13.30
2016,08,24,05,29,13.30
2016,08,24,05,30,13.30
2016,08,24,05,31,13.30
2016,08,24,05,32,13.30
2016,08,24,05,33,13.30
2016,08,24,05,34,13.30
2016,08,24,05,35,13.30
2016,08,24,05,36,13.30
2016,08,24,05,37,13.30
2016,08,24,05,38,13.30
2016,08,24,05,39,13.30
2016,08,24,05,40,13.20
2016,08,24,05,41,13.20
2016,08,24,05,42,13.20
2016,08,24,05,43,13.20
2016,08,24,05,44,13.20
2016,08,24,05,45,13.20
2016,08,24,05,46,13.20
2016,08,24,05,47,13.20
2016,08,24,05,48,13.20
2016,08,24,05,49,13.20
2016,08,24,05,50,13.20
2016,08,24,05,51,13.20
2016,08,24,05,52,13.20
2016,08,24,05,53,13.20
2016,08,24,05,54,13.20
2016,08,24,05,55,13.20
2016,08,24,05,56,13.20
2016,08,24,05,57,13.20
2016,08,24,05,58,13.20
2016,08,24,05,59,13.20
2016,08,24,06,00,13.20
2016,08,24,06,01,13.20
2016,08,24,06,02,13.20
2016,08,24,06,03,13.20
2016,08,24,06,04,13.20
2016,08,24,06,05,13.20
2016,08,24,06,06,13.10
2016,08,24,06,07,13.10
2016,08,24,06,08,13.00
2016,08,24,06,09,13.00
2016,08,24,06,10,12.90
2016,08,24,06,11,12.90
2016,08,24,06,12,12.90
2016,08,24,06,13,12.90
2016,08,24,06,14,12.90
2016,08,24,06,15,12.90
2016,08,24,06,16,12.90
2016,08,24,06,17,12.90
2016,08,24,06,18,12.80
2016,08,24,06,19,12.80
2016,08,24,06,20,12.80
2016,08,24,06,21,12.80
2016,08,24,06,22,12.80
2016,08,24,06,23,12.80
2016,08,24,06,24,12.80
2016,08,24,06,25,12.90
2016,08,24,06,26,12.90
2016,08,24,06,27,12.90
2016,08,24,06,28,12.90
2016,08,24,06,29,12.90
2016,08,24,06,30,12.90
2016,08,24,06,31,12.90
2016,08,24,06,32,12.90
2016,08,24,06,33,12.80
2016,08,24,06,34,12.80
2016,08,24,06,35,12.80
2016,08,24,06,36,12.80
2016,08,24,06,37,12.80
2016,08,24,06,38,12.80
2016,08,24,06,39,12.80
2016,08,24,06,40,12.80
2016,08,24,06,41,12.80
2016,08,24,06,42,12.80
2016,08,24,06,43,12.80
2016,08,24,06,44,12.80
2016,08,24,06,45,12.80
2016,08,24,06,46,12.90
2016,08,24,06,47,12.90
2016,08,24,06,48,12.90
2016,08,24,06,49,12.90
2016,08,24,06,50,12.90
2016,08,24,06,51,12.90
2016,08,24,06,52,12.90
2016,08,24,06,53,12.90
2016,08,24,06,54,12.90
2016,08,24,06,55,12.90
2016,08,24,06,56,12.90
2016,08,24,06,57,12.90
2016,08,24,06,58,13.00
2016,08,24,06,59,13.00
2016,08,24,07,00,13.00
2016,08,24,07,01,13.00
2016,08,24,07,02,13.00
2016,08,24,07,03,13.10
2016,08,24,07,04,13.10
2016,08,24,07,05,13.10
2016,08,24,07,06,13.10
2016,08,24,07,07,13.20
2016,08,24,07,08,13.20
2016,08,24,07,09,13.20
2016,08,24,07,10,13.30
2016,08,24,07,11,13.30
2016,08,24,07,12,13.30
2016,08,24,07,13,13.40
2016,08,24,07,14,13.50
2016,08,24,07,15,13.50
2016,08,24,07,16,13.60
2016,08,24,07,17,13.60
2016,08,24,07,18,13.70
2016,08,24,07,19,13.80
2016,08,24,07,20,13.80
2016,08,24,07,21,13.90
2016,08,24,07,22,13.90
2016,08,24,07,23,13.90
2016,08,24,07,24,14.00
2016,08,24,07,25,14.00
2016,08,24,07,26,14.10
2016,08,24,07,27,14.10
2016,08,24,07,28,14.20
2016,08,24,07,29,14.30
2016,08,24,07,30,14.30
2016,08,24,07,31,14.40
2016,08,24,07,32,14.40
2016,08,24,07,33,14.40
2016,08,24,07,34,14.50
2016,08,24,07,35,14.50
2016,08,24,07,36,14.50
2016,08,24,07,37,14.60
2016,08,24,07,38,14.60
2016,08,24,07,39,14.60
2016,08,24,07,40,14.60
2016,08,24,07,41,14.70
2016,08,24,07,42,14.70
2016,08,24,07,43,14.70
2016,08,24,07,44,14.70
2016,08,24,07,45,14.80
2016,08,24,07,46,14.80
2016,08,24,07,47,14.80
2016,08,24,07,48,14.80
2016,08,24,07,49,14.80
2016,08,24,07,50,14.80
2016,08,24,07,51,14.90
2016,08,24,07,52,14.90
2016,08,24,07,53,15.00
2016,08,24,07,54,15.10
2016,08,24,07,55,15.10
2016,08,24,07,56,15.20
2016,08,24,07,57,15.20
2016,08,24,07,58,15.30
2016,08,24,07,59,15.30
2016,08,24,08,00,15.40
2016,08,24,08,01,15.50
2016,08,24,08,02,15.60
2016,08,24,08,03,15.70
2016,08,24,08,04,15.70
2016,08,24,08,05,15.80
2016,08,24,08,06,15.80
2016,08,24,08,07,15.90
2016,08,24,08,08,15.90
2016,08,24,08,09,16.00
2016,08,24,08,10,16.00
2016,08,24,08,11,16.10
2016,08,24,08,12,16.10
2016,08,24,08,13,16.20
2016,08,24,08,14,16.20
2016,08,24,08,15,16.30
2016,08,24,08,16,16.30
2016,08,24,08,17,16.30
2016,08,24,08,18,16.40
2016,08,24,08,19,16.50
2016,08,24,08,20,16.60
2016,08,24,08,21,16.60
2016,08,24,08,22,16.70
2016,08,24,08,23,16.70
2016,08,24,08,24,16.70
2016,08,24,08,25,16.80
2016,08,24,08,26,16.90
2016,08,24,08,27,17.00
2016,08,24,08,28,17.00
2016,08,24,08,29,17.10
2016,08,24,08,30,17.10
2016,08,24,08,31,17.20
2016,08,24,08,32,17.30
2016,08,24,08,33,17.40
2016,08,24,08,34,17.40
2016,08,24,08,35,17.50
2016,08,24,08,36,17.60
2016,08,24,08,37,17.70
2016,08,24,08,38,17.80
2016,08,24,08,39,17.80
2016,08,24,08,40,17.90
2016,08,24,08,41,17.90
2016,08,24,08,42,18.00
2016,08,24,08,43,18.00
2016,08,24,08,44,18.10
2016,08,24,08,45,18.10
2016,08,24,08,46,18.20
2016,08,24,08,47,18.20
2016,08,24,08,48,18.30
2016,08,24,08,49,18.30
2016,08,24,08,50,18.30
2016,08,24,08,51,18.40
2016,08,24,08,52,18.40
2016,08,24,08,53,18.50
2016,08,24,08,54,18.50
2016,08,24,08,55,18.60
2016,08,24,08,56,18.70
2016,08,24,08,57,18.70
2016,08,24,08,58,18.80
2016,08,24,08,59,18.80
2016,08,24,09,00,18.90
2016,08,24,09,01,18.90
2016,08,24,09,02,19.00
2016,08,24,09,03,19.10
2016,08,24,09,04,19.10
2016,08,24,09,05,19.20
2016,08,24,09,06,19.20
2016,08,24,09,07,19.30
2016,08,24,09,08,19.40
2016,08,24,09,09,19.40
2016,08,24,09,10,19.50
2016,08,24,09,11,19.60
2016,08,24,09,12,19.60
2016,08,24,09,13,19.70
2016,08,24,09,14,19.80
2016,08,24,09,15,19.90
2016,08,24,09,16,19.90
2016,08,24,09,17,20.00
2016,08,24,09,18,20.00
2016,08,24,09,19,20.10
2016,08,24,09,20,20.10
2016,08,24,09,21,20.20
2016,08,24,09,22,20.20
2016,08,24,09,23,20.30
2016,08,24,09,24,20.30
2016,08,24,09,25,20.40
2016,08,24,09,26,20.50
2016,08,24,09,27,20.50
2016,08,24,09,28,20.60
2016,08,24,09,29,20.60
2016,08,24,09,30,20.70
2016,08,24,09,31,20.70
2016,08,24,09,32,20.80
2016,08,24,09,33,20.80
2016,08,24,09,34,20.90
2016,08,24,09,35,21.00
2016,08,24,09,36,21.00
2016,08,24,09,37,21.10
2016,08,24,09,38,21.20
2016,08,24,09,39,21.20
2016,08,24,09,40,21.30
2016,08,24,09,41,21.30
2016,08,24,09,42,21.30
2016,08,24,09,43,21.40
2016,08,24,09,44,21.40
2016,08,24,09,45,21.40
2016,08,24,09,46,21.50
2016,08,24,09,47,21.50
2016,08,24,09,48,21.60
2016,08,24,09,49,21.60
2016,08,24,09,50,21.70
2016,08,24,09,51,21.70
2016,08,24,09,52,21.70
2016,08,24,09,53,21.80
2016,08,24,09,54,21.80
2016,08,24,09,55,21.90
2016,08,24,09,56,21.90
2016,08,24,09,57,21.90
2016,08,24,09,58,21.90
2016,08,24,09,59,22.00
2016,08,24,10,00,22.00
2016,08,24,10,01,22.10
2016,08,24,10,02,22.10
2016,08,24,10,03,22.20
2016,08,24,10,04,22.20
2016,08,24,10,05,22.20
2016,08,24,10,06,22.20
2016,08,24,10,07,22.20
2016,08,24,10,08,22.20
2016,08,24,10,09,22.20
2016,08,24,10,10,22.20
2016,08,24,10,11,22.30
2016,08,24,10,12,22.40
2016,08,24,10,13,22.40
2016,08,24,10,14,22.50
2016,08,24,10,15,22.60
2016,08,24,10,16,22.70
2016,08,24,10,17,22.80
2016,08,24,10,18,22.80
2016,08,24,10,19,22.80
2016,08,24,10,20,22.80
2016,08,24,10,21,22.80
2016,08,24,10,22,22.80
2016,08,24,10,23,22.80
2016,08,24,10,24,22.80
2016,08,24,10,25,22.90
2016,08,24,10,26,22.90
2016,08,24,10,27,23.00
2016,08,24,10,28,23.00
2016,08,24,10,29,23.10
2016,08,24,10,30,23.10
2016,08,24,10,31,23.20
2016,08,24,10,32,23.30
2016,08,24,10,33,23.40
2016,08,24,10,34,23.40
2016,08,24,10,35,23.50
2016,08,24,10,36,23.50
2016,08,24,10,37,23.60
2016,08,24,10,38,23.60
2016,08,24,10,39,23.60
2016,08,24,10,40,23.70
2016,08,24,10,41,23.70
2016,08,24,10,42,23.80
2016,08,24,10,43,23.90
2016,08,24,10,44,23.90
2016,08,24,10,45,24.00
2016,08,24,10,46,24.10
2016,08,24,10,47,24.20
2016,08,24,10,48,24.20
2016,08,24,10,49,24.30
2016,08,24,10,50,24.40
2016,08,24,10,51,24.40
2016,08,24,10,52,24.50
2016,08,24,10,53,24.60
2016,08,24,10,54,24.70
2016,08,24,10,55,24.70
2016,08,24,10,56,24.80
2016,08,24,10,57,24.80
2016,08,24,10,58,24.90
2016,08,24,10,59,25.00
2016,08,24,11,00,25.10
2016,08,24,11,01,25.10
2016,08,24,11,02,25.00
2016,08,24,11,03,25.00
2016,08,24,11,04,24.90
2016,08,24,11,05,25.00
2016,08,24,11,06,25.10
2016,08,24,11,07,25.10
2016,08,24,11,08,25.20
2016,08,24,11,09,25.30
2016,08,24,11,10,25.30
2016,08,24,11,11,25.20
2016,08,24,11,12,25.20
2016,08,24,11,13,25.20
2016,08,24,11,14,25.20
2016,08,24,11,15,25.10
2016,08,24,11,16,25.10
2016,08,24,11,17,25.10
2016,08,24,11,18,25.20
2016,08,24,11,19,25.30
2016,08,24,11,20,25.30
2016,08,24,11,21,25.40
2016,08,24,11,22,25.50
2016,08,24,11,23,25.60
2016,08,24,11,24,25.60
2016,08,24,11,25,25.70
2016,08,24,11,26,25.70
2016,08,24,11,27,25.70
2016,08,24,11,28,25.70
2016,08,24,11,29,25.70
2016,08,24,11,30,25.70
2016,08,24,11,31,25.70
2016,08,24,11,32,25.70
2016,08,24,11,33,25.70
2016,08,24,11,34,25.70
2016,08,24,11,35,25.70
2016,08,24,11,36,25.80
2016,08,24,11,37,25.80
2016,08,24,11,38,25.90
2016,08,24,11,39,26.00
2016,08,24,11,40,26.10
2016,08,24,11,41,26.10
2016,08,24,11,42,26.20
2016,08,24,11,43,26.20
2016,08,24,11,44,26.20
2016,08,24,11,45,26.30
2016,08,24,11,46,26.30
2016,08,24,11,47,26.30
2016,08,24,11,48,26.30
2016,08,24,11,49,26.40
2016,08,24,11,50,26.40
2016,08,24,11,51,26.50
2016,08,24,11,52,26.60
2016,08,24,11,53,26.70
2016,08,24,11,54,26.70
2016,08,24,11,55,26.80
2016,08,24,11,56,26.90
2016,08,24,11,57,26.90
2016,08,24,11,58,26.90
2016,08,24,11,59,27.00
2016,08,24,12,00,27.00
2016,08,24,12,01,27.00
2016,08,24,12,02,26.90
2016,08,24,12,03,26.90
2016,08,24,12,04,26.80
2016,08,24,12,05,26.80
2016,08,24,12,06,26.90
2016,08,24,12,07,26.90
2016,08,24,12,08,26.90
2016,08,24,12,09,26.90
2016,08,24,12,10,26.90
2016,08,24,12,11,26.90
2016,08,24,12,12,26.90
2016,08,24,12,13,27.00
2016,08,24,12,14,27.00
2016,08,24,12,15,27.10
2016,08,24,12,16,27.10
2016,08,24,12,17,27.10
2016,08,24,12,18,27.10
2016,08,24,12,19,27.10
2016,08,24,12,20,27.20
2016,08,24,12,21,27.20
2016,08,24,12,22,27.20
2016,08,24,12,23,27.20
2016,08,24,12,24,27.20
2016,08,24,12,25,27.20
2016,08,24,12,26,27.20
2016,08,24,12,27,27.20
2016,08,24,12,28,27.20
2016,08,24,12,29,27.30
2016,08,24,12,30,27.40
2016,08,24,12,31,27.40
2016,08,24,12,32,27.50
2016,08,24,12,33,27.60
2016,08,24,12,34,27.70
2016,08,24,12,35,27.80
2016,08,24,12,36,27.90
2016,08,24,12,37,27.90
2016,08,24,12,38,28.00
2016,08,24,12,39,28.00
2016,08,24,12,40,28.00
2016,08,24,12,41,27.90
2016,08,24,12,42,27.90
2016,08,24,12,43,27.90
2016,08,24,12,44,27.80
2016,08,24,12,45,27.80
2016,08,24,12,46,27.70
2016,08,24,12,47,27.80
2016,08,24,12,48,27.80
2016,08,24,12,49,27.90
2016,08,24,12,50,27.90
2016,08,24,12,51,28.00
2016,08,24,12,52,28.00
2016,08,24,12,53,28.10
2016,08,24,12,54,28.10
2016,08,24,12,55,28.20
2016,08,24,12,56,28.20
2016,08,24,12,57,28.20
2016,08,24,12,58,28.20
2016,08,24,12,59,28.10
2016,08,24,13,00,28.10
2016,08,24,13,01,28.20
2016,08,24,13,02,28.30
2016,08,24,13,03,28.30
2016,08,24,13,04,28.40
2016,08,24,13,05,28.50
2016,08,24,13,06,28.50
2016,08,24,13,07,28.50
2016,08,24,13,08,28.50
2016,08,24,13,09,28.60
2016,08,24,13,10,28.70
2016,08,24,13,11,28.80
2016,08,24,13,12,28.90
2016,08,24,13,13,29.00
2016,08,24,13,14,29.10
2016,08,24,13,15,29.20
2016,08,24,13,16,29.20
2016,08,24,13,17,29.30
2016,08,24,13,18,29.30
2016,08,24,13,19,29.30
2016,08,24,13,20,29.40
2016,08,24,13,21,29.50
2016,08,24,13,22,29.70
2016,08,24,13,23,29.80
2016,08,24,13,24,29.80
2016,08,24,13,25,29.80
2016,08,24,13,26,29.80
2016,08,24,13,27,29.70
2016,08,24,13,28,29.60
2016,08,24,13,29,29.50
2016,08,24,13,30,29.40
2016,08,24,13,31,29.20
2016,08,24,13,32,29.10
2016,08,24,13,33,29.10
2016,08,24,13,34,29.10
2016,08,24,13,35,29.10
2016,08,24,13,36,29.10
2016,08,24,13,37,29.10
2016,08,24,13,38,29.10
2016,08,24,13,39,29.00
2016,08,24,13,40,29.00
2016,08,24,13,41,28.90
2016,08,24,13,42,28.80
2016,08,24,13,43,28.80
2016,08,24,13,44,28.70
2016,08,24,13,45,28.70
2016,08,24,13,46,28.70
2016,08,24,13,47,28.80
2016,08,24,13,48,28.80
2016,08,24,13,49,28.80
2016,08,24,13,50,28.80
2016,08,24,13,51,28.80
2016,08,24,13,52,28.70
2016,08,24,13,53,28.70
2016,08,24,13,54,28.70
2016,08,24,13,55,28.70
2016,08,24,13,56,28.70
2016,08,24,13,57,28.70
2016,08,24,13,58,28.70
2016,08,24,13,59,28.70
2016,08,24,14,00,28.80
2016,08,24,14,01,28.80
2016,08,24,14,02,28.80
2016,08,24,14,03,28.70
2016,08,24,14,04,28.70
2016,08,24,14,05,28.70
2016,08,24,14,06,28.70
2016,08,24,14,07,28.80
2016,08,24,14,08,28.80
2016,08,24,14,09,28.90
2016,08,24,14,10,28.90
2016,08,24,14,11,28.90
2016,08,24,14,12,28.90
2016,08,24,14,13,28.80
2016,08,24,14,14,28.70
2016,08,24,14,15,28.60
2016,08,24,14,16,28.50
2016,08,24,14,17,28.50
2016,08,24,14,18,28.40
2016,08,24,14,19,28.40
2016,08,24,14,20,28.40
2016,08,24,14,21,28.40
2016,08,24,14,22,28.40
2016,08,24,14,23,28.40
2016,08,24,14,24,28.50
2016,08,24,14,25,28.50
2016,08,24,14,26,28.50
2016,08,24,14,27,28.50
2016,08,24,14,28,28.50
2016,08,24,14,29,28.60
2016,08,24,14,30,28.60
2016,08,24,14,31,28.60
2016,08,24,14,32,28.60
2016,08,24,14,33,28.60
2016,08,24,14,34,28.70
2016,08,24,14,35,28.80
2016,08,24,14,36,28.80
2016,08,24,14,37,28.90
2016,08,24,14,38,29.00
2016,08,24,14,39,29.00
2016,08,24,14,40,29.00
2016,08,24,14,41,29.00
2016,08,24,14,42,29.10
2016,08,24,14,43,29.10
2016,08,24,14,44,29.00
2016,08,24,14,45,28.90
2016,08,24,14,46,28.90
2016,08,24,14,47,28.80
2016,08,24,14,48,28.70
2016,08,24,14,49,28.60
2016,08,24,14,50,28.50
2016,08,24,14,51,28.50
2016,08,24,14,52,28.40
2016,08,24,14,53,28.40
2016,08,24,14,54,28.30
2016,08,24,14,55,28.40
2016,08,24,14,56,28.40
2016,08,24,14,57,28.50
2016,08,24,14,58,28.50
2016,08,24,14,59,28.60
2016,08,24,15,00,28.60
2016,08,24,15,01,28.70
2016,08,24,15,02,28.80
2016,08,24,15,03,28.80
2016,08,24,15,04,28.90
2016,08,24,15,05,29.00
2016,08,24,15,06,29.10
2016,08,24,15,07,29.20
2016,08,24,15,08,29.20
2016,08,24,15,09,29.30
2016,08,24,15,10,29.30
2016,08,24,15,11,29.40
2016,08,24,15,12,29.40
2016,08,24,15,13,29.40
2016,08,24,15,14,29.50
2016,08,24,15,15,29.50
2016,08,24,15,16,29.50
2016,08,24,15,17,29.50
2016,08,24,15,18,29.50
2016,08,24,15,19,29.50
2016,08,24,15,20,29.50
2016,08,24,15,21,29.50
2016,08,24,15,22,29.50
2016,08,24,15,23,29.50
2016,08,24,15,24,29.60
2016,08,24,15,25,29.60
2016,08,24,15,26,29.60
2016,08,24,15,27,29.60
2016,08,24,15,28,29.50
2016,08,24,15,29,29.50
2016,08,24,15,30,29.50
2016,08,24,15,31,29.50
2016,08,24,15,32,29.60
2016,08,24,15,33,29.60
2016,08,24,15,34,29.60
2016,08,24,15,35,29.60
2016,08,24,15,36,29.50
2016,08,24,15,37,29.50
2016,08,24,15,38,29.50
2016,08,24,15,39,29.60
2016,08,24,15,40,29.60
2016,08,24,15,41,29.50
2016,08,24,15,42,29.50
2016,08,24,15,43,29.50
2016,08,24,15,44,29.50
2016,08,24,15,45,29.50
2016,08,24,15,46,29.60
2016,08,24,15,47,29.60
2016,08,24,15,48,29.60
2016,08,24,15,49,29.70
2016,08,24,15,50,29.70
2016,08,24,15,51,29.70
2016,08,24,15,52,29.70
2016,08,24,15,53,29.80
2016,08,24,15,54,29.80
2016,08,24,15,55,29.80
2016,08,24,15,56,29.80
2016,08,24,15,57,29.90
2016,08,24,15,58,30.00
2016,08,24,15,59,30.00
2016,08,24,16,00,30.10
2016,08,24,16,01,30.20
2016,08,24,16,02,30.30
2016,08,24,16,03,30.40
2016,08,24,16,04,30.40
2016,08,24,16,05,30.50
2016,08,24,16,06,30.50
2016,08,24,16,07,30.60
2016,08,24,16,08,30.70
2016,08,24,16,09,30.70
2016,08,24,16,10,30.70
2016,08,24,16,11,30.70
2016,08,24,16,12,30.80
2016,08,24,16,13,30.80
2016,08,24,16,14,30.80
2016,08,24,16,15,30.80
2016,08,24,16,16,30.90
2016,08,24,16,17,31.00
2016,08,24,16,18,31.10
2016,08,24,16,19,31.20
2016,08,24,16,20,31.30
2016,08,24,16,21,31.40
2016,08,24,16,22,31.40
2016,08,24,16,23,31.50
2016,08,24,16,24,31.50
2016,08,24,16,25,31.60
2016,08,24,16,26,31.60
2016,08,24,16,27,31.70
2016,08,24,16,28,31.70
2016,08,24,16,29,31.60
2016,08,24,16,30,31.60
2016,08,24,16,31,31.60
2016,08,24,16,32,31.60
2016,08,24,16,33,31.60
2016,08,24,16,34,31.60
2016,08,24,16,35,31.60
2016,08,24,16,36,31.60
2016,08,24,16,37,31.60
2016,08,24,16,38,31.70
2016,08,24,16,39,31.80
2016,08,24,16,40,31.80
2016,08,24,16,41,31.90
2016,08,24,16,42,32.00
2016,08,24,16,43,32.10
2016,08,24,16,44,32.10
2016,08,24,16,45,32.20
2016,08,24,16,46,32.30
2016,08,24,16,47,32.30
2016,08,24,16,48,32.30
2016,08,24,16,49,32.30
2016,08,24,16,50,32.40
2016,08,24,16,51,32.40
2016,08,24,16,52,32.50
2016,08,24,16,53,32.60
2016,08,24,16,54,32.60
2016,08,24,16,55,32.70
2016,08,24,16,56,32.70
2016,08,24,16,57,32.70
2016,08,24,16,58,32.60
2016,08,24,16,59,32.60
2016,08,24,17,00,32.60
2016,08,24,17,01,32.60
2016,08,24,17,02,32.60
2016,08,24,17,03,32.60
2016,08,24,17,04,32.50
2016,08,24,17,05,32.50
2016,08,24,17,06,32.50
2016,08,24,17,07,32.50
2016,08,24,17,08,32.50
2016,08,24,17,09,32.60
2016,08,24,17,10,32.60
2016,08,24,17,11,32.60
2016,08,24,17,12,32.60
2016,08,24,17,13,32.70
2016,08,24,17,14,32.70
2016,08,24,17,15,32.80
2016,08,24,17,16,32.80
2016,08,24,17,17,32.80
2016,08,24,17,18,32.80
2016,08,24,17,19,32.70